User: anonymous   Login
Location: Delta State University
(33.7460°N, 90.7320°W)
Time: 09:23:12
(UTC-06:00)
Language:

Iridium 13 - Orbit

View from above orbital plane
View from above orbital plane
View from above satellite
View from above satellite

Ground track
Ground track

The orbit data is extracted from the following two-line orbital elements,

1 24840U 97030E   16343.35342976  .00000229  00000-0  74758-4 0  9991
2 24840  86.3979  69.9976 0002357  97.4020 262.7443 14.34220819 19593
Epoch (UTC): 08 December 2016 08:28:56
Eccentricity: 0.0002357
inclination: 86.3979°
perigee height: 776 km
apogee height: 779 km
right ascension of ascending node: 69.9976°
argument of perigee: 97.4020°
revolutions per day: 14.34220819
mean anomaly at epoch: 262.7443°
orbit number at epoch: 1959

The dashed part of the orbit path shows where the satellite is in the earth's shadow,  

DLR